Total_Precipitation_Accumulation
1.86 2.16 2.54 2.89 3.09 3.25 3.36 3.68 3.89 3.61 3.12 2.69 2.19 1.97 1.90 1.71 1.51 1.38 1.28 1.33 1.27 1.39 1.50 1.27 1.55 1.38 1.35 1.41 1.45 1.59 1.58 1.43 1.39 1.73 1.92 1.53 1.17 1.17 1.06 1.05 1.23 1.31 1.34
1.39 1.48 1.70 2.03 2.12 2.34 2.65 3.03 3.28 3.12 2.59 2.35 2.13 1.99 1.91 1.77 1.71 1.56 1.49 1.34 1.30 1.35 1.27 1.50 1.35 1.39 1.50 1.53 1.60 1.69 1.69 1.50 1.42 1.73 2.09 1.84 1.76 1.56 0.88 0.99 1.13 1.23 1.45
1.02 1.02 1.10 1.27 1.58 2.05 2.21 2.27 2.53 2.74 2.48 2.35 2.26 2.14 2.05 1.86 1.90 1.80 1.64 1.33 1.21 1.25 1.29 1.30 1.32 1.50 1.34 1.59 1.78 1.72 1.76 1.74 1.58 1.57 1.87 1.93 1.91 1.64 1.23 0.99 0.98 1.15 1.47
0.70 0.84 0.85 0.91 1.11 1.44 1.73 1.98 2.24 2.42 2.36 2.24 2.04 1.86 1.68 1.59 1.59 1.61 1.63 1.49 1.36 1.19 1.20 1.21 1.36 1.52 1.34 1.68 1.39 1.45 1.69 1.81 1.65 1.57 1.43 1.46 1.63 1.76 1.68 1.39 1.12 1.12 1.28
0.40 0.57 0.68 0.77 0.79 0.99 1.39 1.82 2.18 2.42 2.32 2.03 1.86 1.85 1.74 1.70 1.62 1.55 1.73 1.62 1.53 1.32 1.14 1.22 1.35 1.42 1.34 1.44 1.47 1.72 1.63 1.60 1.58 1.60 1.62 1.67 1.56 1.36 1.47 1.56 1.50 1.37 1.09
0.28 0.37 0.43 0.53 0.68 0.81 1.07 1.39 1.74 1.99 2.02 1.86 1.76 1.81 1.84 1.81 1.67 1.48 1.48 1.40 1.41 1.36 1.26 1.33 1.39 1.34 1.28 1.35 1.38 1.52 1.54 1.63 1.70 1.57 1.47 1.57 1.49 1.38 1.43 1.29 1.27 1.34 1.02
0.24 0.33 0.40 0.43 0.53 0.63 0.80 1.04 1.30 1.44 1.61 1.69 1.71 1.70 1.82 1.82 1.64 1.45 1.40 1.42 1.28 1.19 1.22 1.33 1.47 1.40 1.41 1.39 1.49 1.48 1.44 1.53 1.59 1.46 1.36 1.31 1.18 1.27 1.39 1.42 1.24 1.19 0.93
0.20 0.31 0.41 0.43 0.44 0.49 0.66 0.81 0.98 1.18 1.38 1.49 1.56 1.58 1.54 1.44 1.42 1.51 1.41 1.37 1.35 1.27 1.23 1.30 1.32 1.34 1.38 1.38 1.67 1.49 1.37 1.40 1.38 1.27 1.47 1.39 1.09 1.12 1.25 1.41 1.52 1.42 1.18
0.31 0.36 0.46 0.48 0.39 0.40 0.50 0.57 0.76 0.95 1.09 1.29 1.39 1.31 1.34 1.25 1.26 1.32 1.31 1.26 1.37 1.38 1.31 1.22 1.21 1.28 1.38 1.48 1.59 1.49 1.48 1.53 1.36 1.29 1.42 1.33 1.12 1.08 1.06 1.27 1.55 1.71 1.56
0.42 0.45 0.42 0.45 0.39 0.37 0.44 0.51 0.66 0.78 0.88 1.06 1.13 1.06 1.24 1.24 1.33 1.30 1.22 1.17 1.18 1.22 1.26 1.23 1.18 1.24 1.32 1.43 1.54 1.57 1.68 1.76 1.60 1.48 1.47 1.38 1.22 1.27 1.12 1.18 1.42 1.64 1.77
0.44 0.45 0.41 0.43 0.40 0.39 0.43 0.49 0.63 0.73 0.79 0.93 0.98 1.03 1.11 1.14 1.20 1.24 1.25 1.23 1.20 1.18 1.21 1.25 1.27 1.29 1.33 1.43 1.51 1.47 1.69 1.82 1.84 1.67 1.57 1.51 1.50 1.49 1.35 1.38 1.46 1.54 1.73
0.29 0.36 0.40 0.46 0.36 0.37 0.41 0.46 0.53 0.60 0.66 0.82 0.97 1.03 1.13 1.15 1.12 1.16 1.34 1.35 1.32 1.30 1.32 1.36 1.44 1.41 1.40 1.48 1.47 1.38 1.47 1.65 1.85 2.05 2.09 1.88 1.79 1.74 1.58 1.56 1.54 1.55 1.68
0.33 0.42 0.48 0.44 0.37 0.37 0.41 0.45 0.53 0.58 0.62 0.73 0.87 1.00 1.08 1.15 1.22 1.35 1.50 1.59 1.53 1.52 1.58 1.62 1.56 1.55 1.57 1.55 1.50 1.49 1.54 1.64 1.72 1.90 2.08 2.09 2.14 1.92 1.84 1.75 1.67 1.63 1.58
0.34 0.39 0.53 0.52 0.43 0.41 0.45 0.47 0.56 0.65 0.76 0.94 1.06 1.15 1.31 1.45 1.52 1.53 1.62 1.66 1.70 1.76 1.78 1.79 1.74 1.71 1.74 1.72 1.67 1.63 1.62 1.68 1.68 1.69 1.75 1.87 2.10 2.07 2.03 1.90 1.88 1.87 1.86
0.39 0.50 0.61 0.66 0.63 0.59 0.58 0.60 0.71 0.84 1.04 1.27 1.32 1.35 1.45 1.57 1.71 1.87 1.91 1.92 1.93 1.91 2.02 1.99 1.90 1.87 1.88 1.73 1.80 1.92 1.92 1.97 1.82 1.73 1.67 1.65 1.85 1.93 1.93 1.75 1.81 1.94 2.00
0.44 0.51 0.67 0.77 0.83 0.87 0.86 0.90 1.00 1.19 1.46 1.73 1.82 1.89 1.95 2.04 2.11 2.16 2.15 2.21 2.22 2.18 2.10 2.01 2.02 2.00 1.83 1.94 1.98 1.89 1.95 2.11 2.10 1.98 1.90 1.77 1.68 1.68 1.72 1.76 1.80 1.85 1.86
0.61 0.65 0.79 0.89 1.00 1.04 1.07 1.17 1.26 1.45 1.65 1.79 1.85 1.94 2.03 2.11 2.17 2.21 2.23 2.20 2.20 2.13 2.04 2.07 2.11 2.04 2.07 2.03 1.81 1.68 1.70 1.76 1.86 1.94 1.92 1.71 1.57 1.66 1.61 1.75 1.77 1.67 1.61
0.76 0.78 0.86 0.95 1.00 1.11 1.23 1.33 1.36 1.40 1.62 1.77 1.84 1.83 1.84 1.91 2.03 2.15 2.13 2.03 2.00 1.99 1.96 1.96 1.88 1.81 1.79 1.80 1.59 1.53 1.48 1.46 1.43 1.55 1.67 1.64 1.57 1.56 1.59 1.53 1.39 1.30 1.31
0.73 0.78 0.89 0.95 1.01 1.06 1.13 1.11 1.15 1.26 1.39 1.47 1.56 1.60 1.70 1.82 1.91 1.99 2.03 2.03 1.97 1.80 1.67 1.59 1.57 1.55 1.60 1.72 1.53 1.44 1.40 1.44 1.34 1.34 1.35 1.37 1.30 1.38 1.38 1.30 1.17 1.08 1.07
0.68 0.75 0.88 0.93 0.98 1.02 1.03 1.06 1.14 1.29 1.46 1.59 1.68 1.76 1.86 1.96 1.96 2.03 2.10 2.06 1.96 1.89 1.82 1.65 1.52 1.48 1.48 1.64 1.45 1.34 1.31 1.37 1.35 1.36 1.39 1.48 1.32 1.22 1.09 1.03 1.04 0.94 0.90
0.68 0.73 0.84 0.98 1.00 1.04 1.11 1.22 1.32 1.43 1.56 1.64 1.69 1.73 1.80 1.88 1.94 2.06 2.02 2.02 1.98 1.89 1.76 1.62 1.52 1.50 1.47 1.48 1.31 1.21 1.12 1.15 1.16 1.12 1.13 1.24 1.26 1.06 0.90 0.88 0.87 0.82 0.82
0.59 0.73 0.83 0.94 1.04 1.15 1.29 1.39 1.40 1.43 1.53 1.70 1.76 1.73 1.77 1.79 1.81 1.86 1.84 1.83 1.79 1.71 1.62 1.56 1.53 1.53 1.49 1.34 1.19 1.08 1.02 1.04 1.03 1.12 1.15 1.26 1.31 1.08 0.93 0.79 0.72 0.71 0.65
0.57 0.65 0.74 0.91 1.02 1.17 1.31 1.43 1.51 1.60 1.62 1.69 1.80 1.85 1.82 1.78 1.84 1.94 1.95 1.84 1.75 1.67 1.56 1.46 1.33 1.30 1.35 1.34 1.20 1.03 0.97 1.00 0.99 1.18 1.42 1.44 1.39 1.20 0.97 0.88 0.87 0.76 0.64
0.72 0.74 0.82 0.89 0.99 1.11 1.24 1.39 1.47 1.55 1.69 1.73 1.75 1.83 1.87 1.89 1.92 1.95 1.91 1.81 1.70 1.61 1.51 1.40 1.32 1.30 1.32 1.30 1.26 1.15 1.06 1.06 1.07 1.20 1.40 1.51 1.52 1.40 1.23 1.14 1.05 0.85 0.78
0.87 0.89 0.93 0.97 1.01 1.10 1.20 1.38 1.47 1.52 1.62 1.75 1.78 1.76 1.76 1.80 1.85 1.83 1.78 1.66 1.57 1.50 1.43 1.30 1.25 1.24 1.24 1.29 1.29 1.16 1.06 1.01 1.05 1.19 1.42 1.57 1.67 1.66 1.59 1.46 1.34 1.19 1.05
0.96 0.95 0.97 0.98 1.01 1.09 1.20 1.29 1.45 1.63 1.72 1.73 1.64 1.56 1.48 1.47 1.49 1.48 1.49 1.53 1.39 1.39 1.30 1.21 1.12 1.05 1.09 1.13 1.06 0.96 0.91 0.93 1.01 1.10 1.27 1.52 1.71 1.77 1.84 1.81 1.69 1.50 1.32